Theta_e
306 302 302 304 304 304 304 305 305 305 305 305 305 305 304 303 300 299 299 300 300 299 297 297 297 296 298 301 308 317 322 323 324 324 323 323 323 324 325 324 324 323 323 322
304 304 304 304 305 305 305 305 306 306 305 305 305 306 304 303 299 298 298 299 298 297 297 296 296 295 295 297 299 305 315 320 322 322 321 321 320 320 320 323 322 322 322 321
305 305 305 305 304 304 306 306 306 306 307 304 305 306 305 302 298 297 296 295 297 296 295 295 295 294 293 295 294 299 304 313 318 319 320 320 320 319 320 320 320 320 321 320
306 304 305 304 303 304 305 305 306 307 309 310 305 310 303 303 301 296 293 292 293 295 294 293 293 292 292 292 293 295 299 304 311 317 317 318 317 316 316 316 316 315 317 319
305 304 303 303 303 304 305 305 306 306 308 308 306 307 304 302 303 297 292 291 290 291 292 292 291 290 290 291 291 292 294 298 303 309 313 313 314 313 313 312 313 313 313 312
304 303 304 302 303 303 305 306 307 306 306 310 307 307 305 303 302 298 293 290 290 289 290 290 289 289 289 289 289 290 291 292 297 301 301 303 309 309 311 310 309 310 312 311
303 306 303 303 303 304 305 306 309 312 313 312 306 307 305 302 298 296 293 290 289 288 288 289 288 287 287 287 288 289 289 289 290 290 293 297 299 301 301 302 304 308 308 310
304 307 304 302 303 303 305 305 308 308 312 307 304 309 308 300 295 293 291 290 289 287 287 287 287 286 286 286 286 287 287 288 288 288 288 289 290 290 293 294 297 298 300 300
303 304 302 302 302 303 304 304 303 304 306 307 307 306 302 297 296 293 291 290 288 287 286 286 286 286 285 285 285 286 286 286 286 286 287 287 287 288 287 288 288 289 291 295
303 303 302 303 301 302 305 302 305 306 309 310 308 307 311 300 298 295 292 290 288 287 286 285 285 285 285 285 285 285 286 286 285 285 285 285 286 286 286 286 287 287 287 288
303 301 303 302 303 303 302 304 303 303 304 307 307 308 304 304 300 297 293 290 287 286 284 284 284 284 284 284 284 284 284 285 285 285 284 284 284 284 284 285 285 285 286 286
301 299 301 301 302 300 301 304 303 306 306 304 303 305 301 302 299 296 292 289 287 286 284 284 284 284 284 284 284 284 284 284 284 284 283 283 282 282 282 282 283 284 284 284
301 300 301 304 305 303 302 303 304 302 303 305 307 308 299 297 296 293 290 288 287 286 284 283 284 283 283 283 283 283 282 282 282 284 283 281 281 281 281 281 281 281 281 282
300 299 300 303 304 304 304 303 303 304 308 308 306 306 301 298 297 292 290 287 286 286 285 284 283 283 283 283 282 282 281 281 281 283 282 281 281 281 280 281 281 281 280 281
299 300 298 300 299 300 301 302 303 303 304 307 308 307 305 301 298 293 289 287 286 285 285 284 283 283 283 283 282 281 280 280 280 281 280 280 280 280 280 281 281 280 280 280
299 301 302 301 302 302 303 304 305 305 305 305 306 307 302 300 295 290 288 288 286 285 285 283 283 283 282 282 281 280 280 279 279 279 279 278 278 278 278 279 279 279 279 280
302 302 304 304 304 305 307 305 305 305 305 306 309 305 293 293 293 290 288 287 286 285 284 283 283 282 281 281 279 279 279 279 279 279 278 278 278 278 278 277 278 278 278 279
302 302 305 304 304 308 305 301 302 304 301 297 295 293 293 291 288 288 287 286 285 284 284 283 282 281 280 280 279 279 279 279 278 278 278 277 277 277 277 277 277 277 277 277
298 302 305 306 307 305 305 300 301 302 303 295 292 289 288 286 286 285 284 284 283 283 283 282 281 280 279 279 279 279 279 278 278 277 277 277 277 277 276 276 277 277 277 277
299 299 302 306 310 310 304 296 294 296 301 292 291 288 287 287 290 288 283 283 283 282 281 280 280 279 279 279 279 278 278 278 277 277 276 276 276 276 276 276 276 276 276 276
301 303 305 306 310 306 299 293 293 302 302 289 289 287 287 288 286 283 283 282 281 281 280 280 279 279 278 278 278 277 277 277 276 276 276 276 276 275 275 275 276 276 276 275
303 305 305 306 308 307 292 293 300 293 287 286 286 285 285 283 282 282 281 281 280 279 279 279 278 278 278 277 277 277 276 276 275 275 275 275 275 275 275 275 275 275 275 275
306 305 306 305 305 291 288 289 287 286 286 285 285 284 284 284 284 282 281 279 279 278 278 278 278 277 277 276 276 276 275 275 275 274 274 274 274 274 274 275 274 274 274 274
300 297 305 305 294 290 288 287 286 285 285 285 284 284 283 282 281 280 279 278 278 277 277 277 277 276 276 276 275 275 275 274 274 274 274 274 273 274 274 273 273 273 274 273
299 298 302 301 290 289 288 287 286 284 284 283 282 282 281 281 280 279 278 277 277 277 277 276 275 275 275 274 274 274 274 273 273 273 273 273 273 273 273 273 273 273 274 274
294 300 303 307 292 292 289 286 285 284 283 282 281 280 279 279 278 277 277 276 276 276 276 275 274 274 273 273 273 273 273 272 272 272 272 272 272 272 272 272 272 273 274 275
Wind_Speed
4 6 2 3 2 3 2 2 4 4 4 5 2 3 3 7 6 12 14 16 16 16 21 25 31 36 37 38 32 15 4 10 13 15 16 15 17 28 32 29 27 26 23 22
5 1 1 1 1 2 3 3 4 3 3 3 5 3 2 5 4 7 9 12 15 17 19 29 32 34 36 34 36 29 16 11 11 11 12 12 14 12 18 23 18 19 21 19
3 0 1 3 1 1 2 3 2 3 1 2 6 3 3 3 4 7 8 8 11 15 17 19 29 31 32 37 35 33 32 25 20 16 20 18 18 15 17 16 11 10 10 13
2 1 1 1 1 0 4 3 2 3 0 3 3 4 4 4 3 7 9 11 12 14 17 20 26 31 31 33 39 36 34 31 29 24 25 22 24 20 21 14 10 4 5 6
2 2 2 1 2 3 6 2 4 2 2 3 1 2 3 2 1 4 7 9 10 11 13 14 19 25 29 37 36 35 32 39 34 31 26 23 24 18 13 12 16 11 8 7
2 1 1 2 3 2 5 1 4 3 2 2 3 4 3 3 3 1 3 6 8 10 11 17 21 21 27 29 31 31 36 40 41 36 30 32 30 24 21 13 9 12 11 10
6 2 2 1 3 2 7 5 2 3 2 4 2 0 3 3 4 3 4 5 6 7 8 11 18 21 23 29 28 27 33 37 35 37 38 36 30 25 20 18 15 12 10 6
3 6 2 2 1 2 1 2 3 3 2 4 1 5 2 3 6 7 6 5 5 6 6 9 14 18 22 22 23 28 31 30 33 37 36 34 30 29 25 21 18 15 12 12
3 5 3 3 1 4 1 0 3 2 2 2 2 4 2 5 5 5 6 5 5 5 6 7 13 16 18 24 27 27 28 30 34 33 31 32 31 29 23 21 20 19 17 14
2 5 2 4 0 1 2 3 2 2 3 4 3 4 4 8 10 7 6 6 5 5 5 7 14 17 21 21 24 28 28 29 29 30 30 29 28 25 24 22 23 21 20 18
2 2 4 2 2 2 1 1 1 1 2 3 3 4 4 7 13 12 7 6 6 5 5 5 12 16 19 21 23 23 25 26 28 29 28 29 27 24 21 22 23 23 20 21
1 3 4 8 2 2 2 2 2 2 3 3 2 6 3 3 9 10 8 7 6 6 5 7 10 14 18 21 23 25 25 25 23 21 22 23 22 23 24 26 24 22 22 21
2 1 4 8 4 1 3 4 4 3 3 11 5 5 3 3 6 6 11 8 6 6 6 6 9 12 14 16 20 23 24 24 23 20 22 23 24 25 24 22 22 22 22 23
1 3 7 7 7 3 5 6 5 6 5 6 16 13 4 6 8 8 8 8 6 5 5 4 7 8 10 10 13 15 17 17 17 16 18 22 23 23 22 22 23 24 24 23
3 5 5 9 8 6 14 18 12 12 17 13 16 15 13 15 17 14 10 9 8 5 5 4 3 5 7 8 10 11 12 12 13 11 13 15 15 17 20 22 22 23 23 24
1 4 1 5 10 9 11 19 14 16 18 16 17 21 5 3 10 11 13 12 9 6 5 4 3 2 4 5 6 10 11 12 12 10 10 13 14 15 16 18 19 21 24 24
2 2 4 6 4 7 12 10 4 3 5 4 8 5 4 5 13 14 12 9 8 7 5 4 3 1 2 3 4 8 9 10 12 12 16 18 18 19 18 18 16 16 19 21
4 4 2 5 5 3 4 3 3 5 4 3 1 2 2 6 7 8 6 7 7 6 5 4 3 1 2 3 7 9 11 12 13 13 15 17 19 20 22 24 25 25 24 20
8 5 2 3 3 9 7 2 4 4 5 6 7 5 6 7 5 4 4 4 6 6 5 3 1 1 5 8 11 13 13 14 17 18 19 21 21 22 24 25 25 26 27 28
3 4 4 3 4 6 3 4 3 2 5 7 7 8 9 6 4 4 6 6 7 6 4 1 1 4 8 9 10 13 13 15 17 20 19 20 19 20 23 22 24 24 24 24
3 2 13 12 6 8 4 5 4 3 4 3 5 7 8 4 1 5 10 6 6 4 2 1 3 5 7 8 11 11 11 16 18 19 20 21 20 23 20 21 23 23 25 27
8 7 5 4 5 10 6 4 7 3 2 5 4 3 5 7 6 6 5 6 5 3 3 4 5 6 7 10 11 12 15 18 20 20 21 22 21 21 19 22 23 21 25 26
4 7 5 10 6 2 2 3 2 3 3 3 5 5 7 8 6 5 4 4 3 1 3 6 7 9 10 11 10 15 20 21 21 22 23 23 23 23 21 19 21 22 22 20
5 3 3 1 1 2 4 2 2 3 6 8 8 7 6 6 5 4 3 3 0 3 5 6 8 13 16 14 16 17 20 20 21 23 24 24 22 22 20 23 19 20 20 20
3 6 5 6 2 2 4 4 7 8 8 9 8 7 6 5 4 3 2 0 2 5 7 8 13 15 17 20 20 20 19 20 21 22 23 22 21 22 22 21 20 22 23 21
5 6 6 7 4 2 2 8 9 9 7 7 7 6 6 5 4 3 2 3 6 6 10 15 14 15 20 21 22 23 21 19 21 23 19 19 21 22 20 23 27 24 21 22
Wind_Direction
13 64 9 290 228 259 266 249 252 260 135 102 121 137 296 314 353 8 13 359 0 3 346 358 5 5 3 15 26 15 214 199 205 200 195 180 180 190 200 194 192 185 186 190
23 96 217 225 98 279 250 223 267 301 144 104 180 241 236 317 359 10 11 4 359 357 2 3 8 10 11 8 18 16 39 111 167 187 176 149 149 152 161 180 186 183 182 189
146 250 76 166 270 352 235 193 251 234 96 53 141 280 196 226 22 13 23 2 18 9 2 359 5 8 10 17 7 11 34 63 75 97 115 125 125 102 113 112 123 150 182 191
227 56 63 3 317 110 316 221 216 275 49 234 178 276 226 193 342 29 358 10 1 12 6 9 2 9 6 15 18 19 35 52 61 77 82 86 81 71 60 57 82 74 141 157
297 17 0 337 275 172 239 184 239 233 206 347 202 98 249 90 33 11 4 7 2 360 12 7 13 13 14 21 21 22 30 51 60 65 73 72 73 77 73 45 49 38 41 60
247 262 193 271 302 212 323 14 39 50 87 338 234 159 253 178 144 125 40 17 9 7 12 16 17 21 21 25 24 21 35 41 53 62 63 65 73 72 74 68 40 32 24 22
338 338 303 0 343 29 18 40 344 347 4 235 262 308 268 149 127 128 93 44 26 8 13 20 17 16 22 24 21 27 36 40 45 50 54 61 62 65 62 57 55 51 42 33
48 332 4 351 214 270 354 113 138 283 288 295 290 240 266 149 126 122 113 95 53 33 13 19 26 26 21 23 24 34 37 38 43 49 50 56 54 51 51 48 51 49 36 17
17 278 302 211 171 137 264 145 216 211 196 262 256 268 170 138 156 153 142 104 76 47 19 17 23 28 29 30 31 33 35 40 45 50 49 51 53 52 44 45 42 37 28 20
212 298 247 294 43 265 207 148 351 356 299 275 256 269 249 206 201 184 166 148 119 83 45 26 28 33 36 39 40 42 44 45 43 45 47 47 49 45 40 37 35 34 30 26
147 135 288 324 180 206 5 307 158 243 195 266 300 262 203 210 192 184 173 156 139 112 83 52 41 41 41 43 45 46 45 41 38 36 35 37 35 36 32 33 31 28 24 21
309 159 276 243 268 237 240 228 149 154 284 249 296 266 341 247 170 159 155 149 140 130 107 71 51 42 37 33 32 33 34 36 37 36 35 30 24 25 23 21 19 14 15 14
179 294 320 334 5 318 225 208 169 134 4 246 252 261 46 88 134 156 152 151 148 137 119 94 59 43 36 32 28 25 23 22 20 19 18 18 20 19 14 11 10 9 5 2
106 205 196 225 236 211 261 238 208 198 207 272 239 262 211 204 191 170 158 149 143 134 118 95 62 45 35 34 31 27 23 20 17 16 11 9 6 4 4 3 4 3 360 356
163 237 206 260 274 266 270 268 259 229 246 244 262 258 269 202 200 183 157 148 147 144 125 108 88 45 25 19 19 18 18 15 12 14 7 6 2 359 357 355 355 354 353 349
8 274 315 269 255 272 278 274 262 255 257 251 260 264 240 180 135 155 160 161 160 157 148 142 114 48 17 9 8 3 3 5 7 10 5 359 357 356 356 354 350 348 348 346
234 224 348 279 344 302 278 267 213 244 224 212 224 260 146 159 165 159 154 157 156 158 161 166 169 304 341 347 359 2 4 1 4 360 356 355 354 352 349 348 344 342 342 339
206 155 188 280 345 258 248 169 211 243 241 212 31 67 87 115 89 99 116 136 145 153 159 165 179 281 336 343 350 351 351 352 354 355 354 353 349 346 345 344 343 341 339 331
216 176 231 251 226 287 278 183 164 187 288 177 152 141 111 104 67 40 109 127 155 159 156 153 176 290 340 348 345 343 342 344 345 346 345 346 344 340 338 337 337 335 333 333
108 203 194 169 240 252 225 174 149 149 268 163 147 153 155 154 167 207 161 133 129 129 125 131 326 352 351 346 333 331 333 336 337 337 332 334 334 332 329 328 326 324 327 319
138 173 217 228 250 277 174 151 142 130 265 115 143 152 157 181 84 118 122 119 132 135 124 53 358 346 334 329 323 317 322 328 329 326 324 328 328 327 324 317 320 324 321 321
180 171 199 202 227 272 136 100 183 167 83 122 95 97 115 115 106 106 112 122 126 92 13 345 324 320 323 324 319 316 318 325 323 324 322 322 321 322 315 317 319 315 319 318
241 202 190 195 221 60 8 26 7 104 120 120 111 105 117 120 126 135 131 122 103 46 320 314 313 314 322 325 326 318 320 322 322 319 317 317 319 319 318 314 309 310 311 307
249 146 232 336 196 171 165 78 49 77 105 101 101 106 120 133 137 129 141 142 61 324 323 318 317 320 321 325 320 317 318 319 316 312 313 315 311 312 308 310 305 299 299 299
194 135 194 251 165 110 198 179 134 108 103 103 108 115 116 118 119 126 123 20 324 323 319 323 319 318 315 319 317 320 318 317 313 310 307 305 307 306 306 302 302 300 297 296
188 187 197 250 125 101 92 137 126 123 118 120 120 110 92 101 109 99 52 354 331 325 322 321 318 312 313 314 316 319 320 317 310 305 301 301 303 303 302 300 305 314 301 305